Location: ???? ?????
(30.0052°N, 31.2891°E)
Time: 22:29:55
(UTC+00:00)

MSX - Pass Details

Date: 26 May 2022
Orbit: 895 x 905 km, 98.9° (Epoch: 04 July)

Event Time Altitude Azimuth Distance (km) Brightness Sun altitude
Rises 00:36:02 0° 7° (N) 3,527 7.7 -25.4°
Reaches altitude 10° 00:38:28 10° 4° (N) 2,584 6.9 -25.1°
Maximum altitude 00:44:07 59° 286° (WNW) 1,036 3.9 -24.2°
Enters shadow 00:44:58 53° 250° (WSW) 1,096 3.9 -24.1°
